Previsão horária em Bolshie Eysmonty

Hoje, 8 Março, Segunda-feira

Tempo Temperatura Precipitação Vento Pressão Humidade
00:00 -6°C° 0 mm 5 m/s 746 mmHg 83%
01:00 -6°C° 0 mm 5 m/s 746 mmHg 83%
02:00 -8°C° 0 mm 4 m/s 745 mmHg 88%
03:00 -7°C° 0 mm 5 m/s 745 mmHg 87%
04:00 -7°C° 0 mm 5 m/s 746 mmHg 85%
05:00 -7°C° 0 mm 5 m/s 746 mmHg 83%
06:00 -8°C° 0.1 mm 6 m/s 746 mmHg 84%
07:00 -8°C° 0.1 mm 6 m/s 746 mmHg 85%
08:00 -6°C° 0 mm 6 m/s 747 mmHg 86%
09:00 -6°C° 0 mm 6 m/s 747 mmHg 80%
10:00 -5°C° 0 mm 5 m/s 748 mmHg 74%
11:00 -5°C° 0 mm 5 m/s 749 mmHg 68%
12:00 -4°C° 0 mm 5 m/s 749 mmHg 67%
13:00 -4°C° 0 mm 5 m/s 749 mmHg 66%
14:00 -4°C° 0 mm 5 m/s 749 mmHg 66%
15:00 -4°C° 0 mm 5 m/s 749 mmHg 68%
16:00 -3°C° 0 mm 4 m/s 749 mmHg 70%
17:00 -2°C° 0 mm 3 m/s 750 mmHg 72%
18:00 -4°C° 0 mm 3 m/s 750 mmHg 76%
19:00 -5°C° 0 mm 3 m/s 751 mmHg 81%
20:00 -5°C° 0 mm 3 m/s 751 mmHg 86%
21:00 -5°C° 0 mm 2 m/s 751 mmHg 86%
22:00 -5°C° 0 mm 2 m/s 752 mmHg 87%
23:00 -6°C° 0 mm 2 m/s 752 mmHg 88%

Amanhã, 9 Março, Terça-feira

Tempo Temperatura Precipitação Vento Pressão Humidade
00:00 -6°C° 0 mm 2 m/s 752 mmHg 88%
01:00 -7°C° 0 mm 2 m/s 753 mmHg 89%
02:00 -7°C° 0 mm 2 m/s 753 mmHg 90%
03:00 -7°C° 0 mm 2 m/s 753 mmHg 90%
04:00 -7°C° 0 mm 2 m/s 753 mmHg 90%
05:00 -7°C° 0 mm 2 m/s 753 mmHg 90%
06:00 -7°C° 0 mm 2 m/s 754 mmHg 89%
07:00 -7°C° 0 mm 2 m/s 754 mmHg 88%
08:00 -6°C° 0 mm 1 m/s 755 mmHg 88%
09:00 -4°C° 0 mm 1 m/s 755 mmHg 82%
10:00 -3°C° 0 mm 1 m/s 755 mmHg 76%
11:00 -2°C° 0 mm 1 m/s 755 mmHg 70%
12:00 -2°C° 0 mm 1 m/s 755 mmHg 67%
13:00 -3°C° 0 mm 0 m/s 755 mmHg 64%
14:00 -2°C° 0 mm 0 m/s 755 mmHg 62%
15:00 -2°C° 0 mm 0 m/s 755 mmHg 62%
16:00 -2°C° 0 mm 0 m/s 755 mmHg 63%
17:00 -2°C° 0 mm 0 m/s 755 mmHg 64%
18:00 -2°C° 0 mm 1 m/s 755 mmHg 67%
19:00 -3°C° 0 mm 1 m/s 755 mmHg 71%
20:00 -5°C° 0 mm 2 m/s 756 mmHg 75%
21:00 -6°C° 0 mm 2 m/s 756 mmHg 76%
22:00 -6°C° 0 mm 2 m/s 756 mmHg 78%
23:00 -6°C° 0 mm 2 m/s 756 mmHg 79%

Depois de amanhã, 10 Março, Quarta-feira

Tempo Temperatura Precipitação Vento Pressão Humidade
00:00 -6°C° 0 mm 2 m/s 756 mmHg 80%
01:00 -6°C° 0 mm 2 m/s 756 mmHg 81%
02:00 -6°C° 0 mm 2 m/s 756 mmHg 81%
03:00 -6°C° 0 mm 2 m/s 756 mmHg 82%
04:00 -7°C° 0 mm 2 m/s 756 mmHg 82%
05:00 -7°C° 0 mm 2 m/s 756 mmHg 83%
06:00 -7°C° 0 mm 2 m/s 756 mmHg 82%
07:00 -7°C° 0 mm 2 m/s 756 mmHg 82%
08:00 -6°C° 0 mm 2 m/s 756 mmHg 81%
09:00 -5°C° 0 mm 2 m/s 756 mmHg 75%
10:00 -4°C° 0 mm 2 m/s 756 mmHg 69%
11:00 -3°C° 0 mm 2 m/s 756 mmHg 63%
12:00 0°C° 0 mm 1 m/s 756 mmHg 59%
13:00 0°C° 0 mm 1 m/s 756 mmHg 55%
14:00 +1°C° 0 mm 1 m/s 756 mmHg 51%
15:00 +1°C° 0 mm 1 m/s 756 mmHg 53%
16:00 +1°C° 0 mm 1 m/s 756 mmHg 55%
17:00 -1°C° 0 mm 0 m/s 756 mmHg 57%
18:00 0°C° 0 mm 1 m/s 756 mmHg 60%
19:00 -3°C° 0 mm 2 m/s 756 mmHg 64%
20:00 -4°C° 0 mm 2 m/s 756 mmHg 68%
21:00 -4°C° 0 mm 2 m/s 756 mmHg 70%
22:00 -5°C° 0 mm 2 m/s 756 mmHg 71%
23:00 -5°C° 0 mm 2 m/s 757 mmHg 72%

11 Março, Quinta-feira

Tempo Temperatura Precipitação Vento Pressão Humidade
00:00 -5°C° 0 mm 2 m/s 757 mmHg 71%
01:00 -5°C° 0 mm 2 m/s 757 mmHg 71%
02:00 -5°C° 0 mm 2 m/s 757 mmHg 71%
03:00 -5°C° 0 mm 2 m/s 756 mmHg 71%
04:00 -5°C° 0 mm 2 m/s 756 mmHg 72%
05:00 -6°C° 0 mm 2 m/s 756 mmHg 72%
06:00 -6°C° 0 mm 2 m/s 756 mmHg 73%
07:00 -5°C° 0 mm 2 m/s 756 mmHg 73%
08:00 -5°C° 0 mm 2 m/s 756 mmHg 73%
09:00 -5°C° 0 mm 3 m/s 755 mmHg 68%
10:00 -4°C° 0 mm 4 m/s 755 mmHg 63%
11:00 -2°C° 0 mm 4 m/s 755 mmHg 58%
12:00 -2°C° 0 mm 4 m/s 754 mmHg 57%
13:00 -1°C° 0 mm 5 m/s 754 mmHg 57%
14:00 -1°C° 0 mm 5 m/s 754 mmHg 56%
15:00 -1°C° 0 mm 5 m/s 753 mmHg 60%
16:00 -1°C° 0 mm 5 m/s 752 mmHg 63%
17:00 -1°C° 0 mm 5 m/s 751 mmHg 67%
18:00 -2°C° 0 mm 5 m/s 751 mmHg 70%
19:00 -3°C° 0 mm 6 m/s 750 mmHg 72%
20:00 -3°C° 0 mm 6 m/s 750 mmHg 75%
21:00 -3°C° 0 mm 7 m/s 749 mmHg 76%
22:00 -3°C° 0 mm 7 m/s 749 mmHg 77%
23:00 -3°C° 0 mm 7 m/s 748 mmHg 78%

12 Março, Sexta-feira

Tempo Temperatura Precipitação Vento Pressão Humidade
00:00 -3°C° 0.2 mm 7 m/s 747 mmHg 84%
01:00 -3°C° 0.2 mm 7 m/s 746 mmHg 89%
02:00 -3°C° 0.2 mm 7 m/s 745 mmHg 94%
03:00 -4°C° 0.4 mm 8 m/s 744 mmHg 94%
04:00 -4°C° 0.4 mm 8 m/s 744 mmHg 95%
05:00 -4°C° 0.4 mm 8 m/s 743 mmHg 95%
06:00 -2°C° 0.5 mm 7 m/s 742 mmHg 96%
07:00 -2°C° 0.5 mm 6 m/s 742 mmHg 96%
08:00 0°C° 0.5 mm 5 m/s 742 mmHg 97%
09:00 0°C° 0.3 mm 5 m/s 742 mmHg 97%
10:00 0°C° 0.3 mm 5 m/s 742 mmHg 97%
11:00 +1°C° 0.3 mm 4 m/s 742 mmHg 98%
12:00 +1°C° 0.1 mm 5 m/s 742 mmHg 95%
13:00 +2°C° 0.1 mm 5 m/s 743 mmHg 93%
14:00 +3°C° 0.1 mm 5 m/s 743 mmHg 90%
15:00 +2°C° 0 mm 5 m/s 743 mmHg 89%
16:00 +2°C° 0 mm 5 m/s 744 mmHg 88%
17:00 +2°C° 0 mm 5 m/s 744 mmHg 86%
18:00 +1°C° 0 mm 4 m/s 745 mmHg 88%
19:00 0°C° 0 mm 4 m/s 746 mmHg 90%
20:00 0°C° 0 mm 3 m/s 746 mmHg 92%
21:00 0°C° 0 mm 3 m/s 746 mmHg 92%
22:00 0°C° 0 mm 3 m/s 747 mmHg 91%
23:00 -1°C° 0 mm 3 m/s 747 mmHg 91%

13 Março, Sábado

Tempo Temperatura Precipitação Vento Pressão Humidade
00:00 -1°C° 0 mm 3 m/s 747 mmHg 90%
01:00 -2°C° 0 mm 4 m/s 747 mmHg 90%
02:00 -2°C° 0 mm 4 m/s 747 mmHg 89%
03:00 -2°C° 0 mm 4 m/s 746 mmHg 89%
04:00 -2°C° 0 mm 4 m/s 746 mmHg 89%
05:00 -1°C° 0 mm 4 m/s 746 mmHg 88%
06:00 -1°C° 0 mm 4 m/s 746 mmHg 87%
07:00 -1°C° 0 mm 5 m/s 746 mmHg 86%
08:00 0°C° 0 mm 5 m/s 746 mmHg 85%
09:00 +1°C° 0 mm 5 m/s 746 mmHg 82%
10:00 +2°C° 0 mm 6 m/s 746 mmHg 79%
11:00 +3°C° 0 mm 6 m/s 746 mmHg 76%
12:00 +4°C° 0 mm 6 m/s 746 mmHg 75%
13:00 +4°C° 0 mm 6 m/s 745 mmHg 73%
14:00 +5°C° 0 mm 6 m/s 745 mmHg 72%
15:00 +6°C° 0 mm 5 m/s 745 mmHg 76%
16:00 +5°C° 0 mm 5 m/s 745 mmHg 80%
17:00 +4°C° 0 mm 4 m/s 745 mmHg 83%
18:00 +4°C° 0.2 mm 4 m/s 745 mmHg 87%
19:00 +3°C° 0.2 mm 3 m/s 745 mmHg 91%
20:00 +2°C° 0.2 mm 3 m/s 745 mmHg 94%
21:00 +2°C° 0 mm 3 m/s 745 mmHg 94%
22:00 +1°C° 0 mm 3 m/s 744 mmHg 95%
23:00 +1°C° 0 mm 3 m/s 744 mmHg 95%
Mostrar mais